Location: Arroyo Grande
(40.2671°N, 4.2512°W)
Time: 04:31:32
(UTC+00:00)

Cosmos 2058 Rocket - Pass Details

Date: 03 February 2023
Orbit: 610 x 637 km, 82.5° (Epoch: 26 March)

Event Time Altitude Azimuth Distance (km) Brightness Sun altitude
Rises 19:40:01 0° 346° (NNW) 2,897 6.6 -23.6°
Reaches altitude 10° 19:42:17 10° 341° (NNW) 1,991 5.8 -24.0°
Maximum altitude 19:46:33 50° 267° (W) 798 3.9 -24.8°
Drops below altitude 10° 19:50:49 10° 192° (SSW) 1,993 5.8 -25.7°
Sets 19:53:05 0° 187° (S) 2,899 6.6 -26.1°
